Location: Newark
(41.6500°N, 71.4833°W)
Time: 00:08:20
(UTC+00:00)

Tiros 1 - Visible Passes

Search period start: 20 January 2020 00:00
Search period end: 30 January 2020 00:00
Orbit: 630 x 664 km, 48.4° (Epoch: 19 January)

Date Brightness Start Highest point End Pass type
(mag) Time Alt. Az. Time Alt. Az. Time Alt. Az.
20 Jan 9.9 01:09:42 10° WNW 01:10:37 15° WNW 01:10:37 15° WNW visible
20 Jan 8.0 22:11:05 10° WNW 22:15:31 36° N 22:19:58 10° ENE visible
20 Jan 7.3 23:53:34 10° WNW 23:58:05 60° N 23:58:05 60° N visible
21 Jan 7.8 22:37:23 10° WNW 22:41:56 42° NNE 22:45:38 15° E visible
22 Jan 7.9 00:19:39 10° WNW 00:23:19 52° WNW 00:23:19 52° WNW visible
22 Jan 7.3 23:03:31 10° WNW 23:08:15 59° NNE 23:10:58 24° E visible
23 Jan 9.0 00:45:54 10° WNW 00:48:40 29° W 00:48:40 29° W visible
23 Jan 7.2 23:29:35 10° WNW 23:34:24 84° SSW 23:36:28 34° SE visible
24 Jan 9.9 01:12:44 10° W 01:14:10 15° WSW 01:14:10 15° WSW visible
24 Jan 7.4 22:13:28 10° WNW 22:18:09 56° NNE 22:22:54 10° E visible
24 Jan 8.2 23:55:48 10° WNW 00:00:21 43° SW 00:02:08 30° S visible
25 Jan 7.2 22:39:32 10° WNW 22:44:20 89° SSW 22:49:09 10° ESE visible
26 Jan 9.4 00:22:32 10° W 00:26:06 21° SW 00:28:04 16° SSW visible
26 Jan 8.2 23:05:43 10° WNW 23:10:18 47° SW 23:14:54 10° SE visible
27 Jan 9.5 23:32:22 10° W 23:36:04 22° SW 23:39:46 10° S visible
29 Jan 9.6 22:42:12 10° W 22:46:03 24° SW 22:49:53 10° S visible
